www.pogodaiklimat.ru

Погода и климат >> Архив погоды >> Португалия >> Бежа


ПОГОДА в Беже

  • Прогноз погоды в Беже
  • Монитор погоды в Беже

АРХИВ ПОГОДЫ в Беже

Время (UTC), дата Ветер
(напр.,м/с)
 
Видим.   Явления Облачность Т
(С)
Тd
(С)
f
(%)
Тe
(С)
Тes
(С)
Комфортность P
(гПа)
Po
(гПа)
Тmin
(С)
Tmax
(С)
R
(мм)
R24
(мм)
S
(см)
13 18.06 ЮЗ 7 н/о н/о +23.2 +15.5 62 +27 +27 душно 1014.6 986.4
14 18.06 ЮЗ 7 н/о н/о +23.2 +14.7 59 +27 +27 душно 1014.6 986.4
15 18.06 ЮЗ 7 н/о н/о +24.2 +14.2 54 +27 +27 жарко 1014.1 986.1
16 18.06 ЮЗ 6 н/о н/о +23.9 +14.4 55 +26 +26 жарко 1014.4 986.3
17 18.06 З 5 н/о н/о +23.8 +13.2 51 +26 +26 жарко 1014.3 986.2
18 18.06 З 7 н/о н/о +24.1 +13.2 51 +26 +26 жарко 1014.3 986.2 +26.1
19 18.06 З 6 н/о н/о +22.1 +12.6 55 +25 +25 комфорт 1015.0 986.7
20 18.06 З 6 н/о н/о +19.4 +12.9 66 +20 +20 1015.6 987.0
21 18.06 З 4 н/о н/о +17.8 +13.3 75 +18 +18 1016.3 987.5
22 18.06 З 4 н/о н/о +16.2 +13.8 86 +15 +15 1017.0 988.1
00 19.06 ЮЗ 5 н/о н/о +16.0 +15.5 97 +15 +15 1016.7 987.8
01 19.06 ЮЗ 4 н/о н/о +15.6 +15.4 99 +15 +15 1016.4 987.4
02 19.06 ЮЗ 4 н/о н/о +16.1 +15.7 97 +15 +15 1016.0 987.1
03 19.06 ЮЗ 4 н/о н/о +16.3 +15.3 94 +16 +16 1016.1 987.2
04 19.06 ЮЗ 4 н/о н/о +16.2 +15.3 94 +15 +15 1016.2 987.3
05 19.06 ЮЗ 3 н/о н/о +16.6 +15.7 94 +16 +16 1016.1 987.2
06 19.06 ЮЗ 3 н/о н/о +16.9 +15.6 92 +17 +17 1016.3 987.5 +15.4
07 19.06 ЮЗ 3 н/о н/о +18.0 +15.8 87 +18 +18 1016.6 987.8
08 19.06 ЮЗ 3 н/о н/о +19.5 +16.1 81 +22 +22 комфорт 1016.7 988.1
09 19.06 ЮЗ 4 н/о н/о +20.7 +15.1 70 +24 +24 комфорт 1016.7 988.2
10 19.06 ЮЗ 5 н/о н/о +21.6 +14.4 64 +25 +25 комфорт 1016.8 988.4
11 19.06 ЮЗ 3 н/о н/о +21.8 +13.7 60 +25 +25 комфорт 1017.0 988.6
12 19.06 З 5 н/о н/о +21.2 +15.9 72 +25 +25 комфорт 1017.0 988.6
13 19.06 З 6 н/о н/о +20.0 +16.1 78 +22 +22 комфорт 1017.1 988.6
14 19.06 З 5 н/о н/о +22.8 +14.9 61 +27 +27 душно 1016.2 988.0
15 19.06 З 4 н/о н/о +24.2 +14.1 53 +27 +27 жарко 1015.7 987.5
17 19.06 З 6 н/о н/о +24.0 +13.3 51 +26 +26 жарко 1015.1 986.9
18 19.06 З 6 н/о н/о +23.6 +12.7 50 +26 +26 жарко 1015.0 986.9 +25.8
19 19.06 З 7 н/о н/о +21.6 +11.9 54 +24 +24 комфорт 1015.4 987.1
20 19.06 З 5 н/о н/о +19.5 +12.7 65 +21 +21 комфорт 1015.8 987.2
21 19.06 З 4 н/о н/о +17.8 +11.9 68 +18 +18 1016.4 987.6
22 19.06 З 5 н/о н/о +16.2 +12.9 81 +15 +15 1017.0 988.1
23 19.06 З 4 н/о н/о +15.2 +14.0 93 +14 +14 1017.2 988.2
00 20.06 З 4 н/о н/о +14.5 +14.5 100 +13 +13 1017.0 987.9
01 20.06 З 3 н/о н/о +13.8 +13.8 100 +13 +13 1016.7 987.6
03 20.06 З 2 н/о н/о +13.2 +13.2 100 +12 +12 1016.4 987.2
04 20.06 З 3 н/о н/о +13.5 +13.5 100 +12 +12 1016.4 987.3
05 20.06 З 3 н/о н/о +12.6 +12.6 100 +11 +11 1016.6 987.4
06 20.06 З 3 н/о н/о +13.0 +13.0 100 +11 +11 1016.7 987.5 +12.3
07 20.06 З 4 н/о н/о +14.6 +13.9 96 +13 +13 1016.7 987.6
08 20.06 СЗ 5 н/о н/о +17.0 +12.9 77 +16 +16 1016.6 987.8
09 20.06 СЗ 4 н/о н/о +19.5 +11.9 61 +21 +21 комфорт 1016.5 987.9
10 20.06 СЗ 5 н/о н/о +20.5 +10.6 53 +22 +22 комфорт 1016.4 988.0
11 20.06 СЗ 5 н/о н/о +21.3 +10.9 51 +23 +23 комфорт 1016.4 988.0
12 20.06 З 5 н/о н/о +20.9 +10.2 50 +23 +23 комфорт 1016.5 988.0
13 20.06 З 6 н/о н/о +21.1 +10.3 50 +23 +23 комфорт 1016.3 987.9
14 20.06 З 5 н/о н/о +22.7 +10.4 46 +25 +25 комфорт 1015.7 987.5
15 20.06 СЗ 6 н/о н/о +23.8 +11.5 46 +25 +25 комфорт 1015.2 987.1
16 20.06 СЗ 6 н/о н/о +23.5 +11.4 47 +25 +25 комфорт 1015.0 986.8
17 20.06 СЗ 5 н/о н/о +23.1 +10.5 45 +25 +25 комфорт 1014.8 986.6
18 20.06 СЗ 5 н/о н/о +22.0 +9.8 46 +24 +24 комфорт 1015.0 986.7 +24.3
19 20.06 З 6 н/о н/о +21.3 +10.8 51 +23 +23 комфорт 1015.2 986.8
20 20.06 СЗ 6 н/о н/о +19.9 +9.6 51 +21 +21 комфорт 1015.6 987.1
21 20.06 З 6 н/о н/о +17.8 +12.0 69 +17 +17 1016.6 987.8
22 20.06 СЗ 6 н/о н/о +16.6 +10.4 67 +16 +16 1017.4 988.5
23 20.06 СЗ 5 н/о н/о +15.4 +10.9 75 +14 +14 1018.0 989.0
00 21.06 СЗ 5 н/о н/о +14.5 +11.4 82 +13 +13 1018.1 989.0
01 21.06 СЗ 4 н/о н/о +13.6 +12.0 90 +12 +12 1018.1 988.9
02 21.06 СЗ 4 н/о н/о +12.3 +11.6 95 +10 +10 1017.9 988.6
03 21.06 З 4 н/о н/о +12.0 +11.9 99 +10 +10 1017.7 988.4
04 21.06 З 4 н/о н/о +11.5 +11.5 100 +9 +9 1017.6 988.2
05 21.06 З 5 н/о н/о +11.8 +11.8 100 +9 +9 1017.9 988.6
06 21.06 З 6 н/о н/о +11.9 +11.9 100 +9 +9 1018.2 988.9 +11.4
07 21.06 СЗ 6 н/о н/о +13.2 +12.0 92 +11 +11 1018.4 989.1
08 21.06 СЗ 5 н/о н/о +14.7 +11.8 83 +13 +13 1018.5 989.4
09 21.06 СЗ 4 н/о н/о +16.9 +12.0 73 +16 +16 1018.0 989.1
10 21.06 СЗ 3 н/о н/о +19.6 +11.7 60 +21 +21 комфорт 1017.7 989.1
11 21.06 С 3 н/о н/о +21.7 +11.0 51 +24 +24 комфорт 1017.2 988.9
12 21.06 З 3 н/о н/о +23.1 +11.6 48 +25 +25 комфорт 1016.6 988.3
13 21.06 СЗ 4 н/о н/о +25.9 +10.9 39 +27 +27 жарко 1015.9 987.9
14 21.06 СЗ 6 н/о н/о +27.8 +9.6 32 +28 +28 жарко 1015.0 987.3
15 21.06 СЗ 5 н/о н/о +28.2 +9.3 31 +28 +28 жарко 1014.5 986.8
16 21.06 З 6 н/о н/о +28.2 +8.6 29 +28 +28 жарко 1014.4 986.7
17 21.06 З 6 н/о н/о +27.9 +9.7 32 +28 +28 жарко 1014.1 986.4
18 21.06 СЗ 6 н/о н/о +25.6 +9.3 36 +26 +26 жарко 1014.4 986.5 +29.1
19 21.06 З 6 н/о н/о +25.0 +9.9 38 +26 +26 жарко 1014.8 986.7
20 21.06 СЗ 5 н/о н/о +22.6 +8.6 41 +24 +24 комфорт 1015.1 986.8
21 21.06 СЗ 4 н/о н/о +20.5 +7.0 42 +22 +22 комфорт 1015.7 987.2
23 21.06 З 5 н/о н/о +16.6 +7.1 53 +16 +16 1016.4 987.5
00 22.06 СЗ 4 н/о н/о +15.2 +7.4 60 +14 +14 1016.2 987.2
01 22.06 СЗ 3 н/о н/о +13.9 +7.8 67 +13 +13 1016.3 987.2
03 22.06 СЗ 4 н/о н/о +12.1 +8.4 78 +10 +10 1015.8 986.5
04 22.06 З 3 н/о н/о +11.5 +8.6 82 +10 +10 1015.9 986.5
05 22.06 СЗ 1 н/о н/о +12.5 +7.8 73 +13 +13 1015.6 986.4
06 22.06 З 1 н/о н/о +13.6 +8.5 71 +14 +14 1015.5 986.4 +11.2
07 22.06 З 4 н/о н/о +13.8 +9.8 77 +12 +12 1016.1 987.0
08 22.06 СЗ 3 н/о н/о +17.3 +8.5 56 +17 +17 1015.8 987.0
09 22.06 СЗ 2 н/о н/о +20.6 +5.8 38 +22 +22 комфорт 1015.2 986.7
10 22.06 СЗ 1 н/о н/о +24.1 +5.4 30 +24 +24 комфорт 1014.9 986.8
11 22.06 Ю 1 н/о н/о +25.3 +3.9 25 +24 +24 комфорт 1014.6 986.6
12 22.06 З 2 н/о н/о +27.8 +3.9 22 +26 +26 жарко 1013.8 986.0
13 22.06 З 5 н/о н/о +29.0 +2.8 19 +27 +27 жарко 1013.4 985.8
14 22.06 З 4 н/о н/о +29.8 +2.9 18 +28 +28 жарко 1012.7 985.1
15 22.06 З 4 н/о н/о +30.1 +2.0 17 +28 +28 жарко 1012.0 984.5
16 22.06 З 4 н/о н/о +30.9 +1.9 16 +28 +28 жарко 1011.3 983.9
17 22.06 СЗ 7 н/о н/о +29.5 +3.3 19 +27 +27 жарко 1011.3 983.7
18 22.06 СЗ 8 н/о н/о +26.7 +1.8 20 +25 +25 комфорт 1011.8 984.0 +31.5
19 22.06 З 7 н/о н/о +24.3 +3.0 25 +24 +24 комфорт 1012.6 984.5
21 22.06 З 6 н/о н/о +19.2 +6.5 44 +19 +19 1014.0 985.4
22 22.06 З 5 н/о н/о +17.2 +6.6 50 +17 +17 1014.4 985.6
23 22.06 З 5 н/о н/о +15.6 +8.0 61 +14 +14 1014.3 985.4
00 23.06 З 3 н/о н/о +14.5 +9.2 70 +14 +14 1014.3 985.3
01 23.06 З 2 н/о н/о +13.9 +10.1 78 +13 +13 1014.1 985.1
02 23.06 ЮЗ 3 н/о н/о +14.0 +11.5 85 +13 +13 1014.3 985.2
03 23.06 ЮЗ 1 н/о н/о +14.0 +13.0 94 +14 +14 1013.8 984.8
05 23.06 З 3 н/о н/о +13.2 +13.1 99 +12 +12 1013.9 984.8
06 23.06 З 4 н/о н/о +14.3 +14.3 100 +13 +13 1014.1 985.1 +12.9
07 23.06 З 4 н/о н/о +14.8 +14.8 100 +13 +13 1014.4 985.5
08 23.06 З 2 н/о н/о +18.7 +16.4 86 +20 +20 1014.3 985.7
11 23.06 ЮЗ 3 н/о н/о +25.8 +10.3 38 +27 +27 жарко 1013.3 985.4
12 23.06 ЮЗ 3 н/о н/о +26.9 +9.8 34 +27 +27 жарко 1012.6 984.8
13 23.06 З 3 н/о н/о +28.3 +10.6 33 +29 +29 жарко 1011.9 984.3
14 23.06 ЮЗ 3 н/о н/о +28.9 +11.8 35 +30 +30 жарко 1011.7 984.1
15 23.06 СЗ 3 н/о н/о +28.3 +13.3 40 +30 +30 жарко 1011.2 983.6
16 23.06 З 5 н/о н/о +27.4 +14.9 46 +30 +30 жарко 1011.0 983.4
19 23.06 З 6 н/о н/о +24.2 +17.1 65 +28 +28 душно 1011.9 983.9
20 23.06 З 5 н/о н/о +22.6 +17.9 75 +28 +28 душно 1012.5 984.3
21 23.06 З 5 н/о н/о +21.0 +18.0 83 +25 +25 комфорт 1013.2 984.8
22 23.06 СЗ 4 н/о н/о +19.9 +18.2 90 +23 +23 комфорт 1013.9 985.4
23 23.06 З 4 н/о н/о +19.3 +18.0 92 +21 +21 комфорт 1014.2 985.6
00 24.06 З 4 н/о н/о +19.1 +18.0 93 +21 +21 комфорт 1013.9 985.3
01 24.06 З 3 н/о н/о +19.0 +17.8 93 +21 +21 комфорт 1013.7 985.2
02 24.06 СЗ 2 н/о н/о +19.1 +18.3 95 +21 +21 комфорт 1013.2 984.7
03 24.06 З 2 н/о н/о +18.8 +17.9 95 +21 +21 комфорт 1013.0 984.5
04 24.06 З 2 н/о н/о +18.9 +18.0 95 +21 +21 комфорт 1013.1 984.6
06 24.06 З 2 н/о н/о +19.1 +17.9 93 +21 +21 комфорт 1013.4 984.9 +18.6
07 24.06 СЗ 3 н/о н/о +17.4 +17.4 100 +17 +17 1013.9 985.2
08 24.06 З 1 н/о н/о +19.1 +18.0 93 +22 +22 комфорт 1013.9 985.4
09 24.06 З 1 н/о н/о +21.4 +18.3 83 +26 +26 душно 1013.9 985.6
10 24.06 ЮЗ 2 н/о н/о +22.9 +17.9 73 +28 +28 душно 1013.7 985.5
11 24.06 З 2 н/о н/о +23.6 +17.7 70 +28 +28 душно 1013.7 985.6
12 24.06 З 5 н/о н/о +23.5 +17.9 71 +28 +28 душно 1013.8 985.7
13 24.06 З 3 н/о н/о +25.4 +16.7 59 +29 +29 душно 1013.3 985.4
14 24.06 СЗ 3 н/о н/о +25.0 +16.4 59 +28 +28 жарко 1013.3 985.3
15 24.06 СЗ 5 н/о н/о +25.6 +14.3 50 +28 +28 жарко 1013.3 985.4
16 24.06 СЗ 4 н/о н/о +25.9 +14.0 48 +28 +28 жарко 1012.9 985.1
17 24.06 З 3 н/о н/о +26.1 +13.8 47 +28 +28 жарко 1012.9 985.1
18 24.06 СЗ 5 н/о н/о +26.0 +11.4 40 +27 +27 жарко 1012.9 985.1 +28.5
19 24.06 С 5 н/о н/о +23.5 +11.1 46 +25 +25 комфорт 1013.7 985.6
20 24.06 С 4 н/о н/о +21.4 +10.4 49 +23 +23 комфорт 1014.3 985.9
21 24.06 С 3 н/о н/о +20.6 +9.9 50 +23 +23 комфорт 1014.9 986.5
22 24.06 СЗ 3 н/о н/о +18.6 +8.6 52 +19 +19 1015.7 987.0
23 24.06 СЗ 3 н/о н/о +17.9 +9.1 56 +18 +18 1015.8 987.1
00 25.06 З 2 н/о н/о +17.2 +9.0 59 +18 +18 1015.8 987.0
01 25.06 З 2 н/о н/о +17.0 +9.4 61 +17 +17 1015.5 986.7
02 25.06 З 2 н/о н/о +16.2 +9.8 66 +16 +16 1015.1 986.3
03 25.06 З 2 н/о н/о +16.5 +10.7 69 +17 +17 1014.9 986.1
04 25.06 З 2 н/о н/о +16.4 +12.0 75 +17 +17 1015.0 986.2
05 25.06 З 1 н/о н/о +16.5 +12.7 78 +17 +17 1015.1 986.3
06 25.06 СЗ 1 н/о н/о +16.6 +11.8 73 +17 +17 1015.4 986.5 +16.1
07 25.06 СЗ 2 н/о н/о +18.1 +12.2 68 +19 +19 1015.5 986.8
08 25.06 СВ 1 н/о н/о +22.5 +10.5 47 +24 +24 комфорт 1015.4 987.2
09 25.06 С 2 н/о н/о +23.5 +10.5 44 +25 +25 комфорт 1015.4 987.2
10 25.06 Ю 2 н/о н/о +25.5 +10.6 39 +26 +26 жарко 1014.9 986.9
11 25.06 СЗ 2 н/о н/о +26.9 +10.7 36 +28 +28 жарко 1014.5 986.7

 

Местоположение метеостанции Бежа (Португалия): широта 38.02 долгота -7.87 высота над уровнем моря 247 м.

В архиве по умолчанию представлена погода в Беже за последнюю неделю. Архивные данные за месяц целиком и за предыдущие месяцы, начиная с января 2011 года, Вы можете получить, выбрав интересующий диапазон дат из раскрывающегося списка и нажав кнопку "Ввод!".


*Определитесь, кто Вы:
робот инопланетянин человек

Внимание! Время в таблицах - всемирное. Для получения местного времени необходимо прибавить поправку, которая равна 0 ч.

Смотрите также архив погоды в соседних городах и на ближайших метеорологических станциях:

Погода в Бежа аэропорту (Португалия) (7 км)
Погода в Эворе (Португалия) (57 км)
Погода в Синише (Португалия) (88 км)
Погода в Айямонте - Исла Канель (Испания) (102 км)
Погода в Херес-де-лос-Кабалье (Испания) (102 км)
Погода в Алахар - Кабезо Молин (Испания) (107 км)
Погода в Фару (Португалия) (112 км)
Погода в Уэльве (Испания) (117 км)
Погода в Монтижу (Португалия) (126 км)
Погода в Бадахосе (Испания) (132 км)

Пояснения к столбцам:

Ветер - указаны скорость ветра в м/с - средняя за 10 мин, порывы в срок и между сроками (в фигурных скобках) и направление, откуда дует ветер: С - северный, СВ - северо-восточный, В - восточный, ЮВ - юго-восточный, Ю - южный, ЮЗ - юго-западный, З - западный, СЗ - северо-западный.
Видимость - горизонтальная дальность видимости в метрах или километрах. При видимости от 1 до 10 км при отсутствии осадков обычно наблюдается дымка, при ухудшении видимости до 1 км и менее - туман. В сухую погоду видимость может ухудшаться дымом, пылью или мглою.
Явления - указаны атмосферные явления, наблюдавшиеся в срок или в последний час перед сроком; фигурными скобками обозначены явления, наблюдавшиеся между сроками (за 1-3 часа до срока); квадратными скобками обозначены град или гололедные отложения с указанием их диаметра в мм.
Облачность - указаны через наклонную черту общая и нижняя облачность в баллах и высота нижней границы облаков в метрах; квадратными скобками обозначены формы облаков: Ci - перистые, Cs - перисто-слоистые, Cc - перисто-кучевые, Ac - высококучевые, As - высокослоистые, Sc - слоисто-кучевые, Ns - слоисто-дождевые, Cu - кучевые, Cb - кучево-дождевые. Подробнее классификацию облаков см. в Атласе облаков (PDF).
T - Температура воздуха - температура, измеренная на высоте 2 м над землей.
Td - Температура точки росы - температура, при понижении до которой содержащийся в воздухе водяной пар достигнет насыщения.
f - Относительная влажность воздуха - влажноcть воздуха, измеренная на высоте 2 м над землей.
Te - Эффективная температура - температура, которую ощущает одетый по сезону человек в тени. Характеристика душности погоды. При расчете учитывается влияние влажности воздуха и скорости ветра на теплоощущения человека.
Tes - Эффективная температура на солнце - температура, которую ощущает человек, с поправкой на солнечный нагрев. Характеристика знойности погоды. Зависит от высоты солнца над горизонтом, облачности и скорости ветра. Ночью, в пасмурную погоду, а также при ветре 12 м/с и более поправка равна нулю.
P - Атмосферное давление - приведенное к уровню моря атмосферное давление.
Po - Атмосферное давление - измеренное на уровне метеостанции атмосферное давление.
Tmin - Минимальная температура - минимум температуры воздуха на высоте 2 м над землей.
Tmax - Максимальная температура - максимум температуры воздуха на высоте 2 м над землей.
R - Количество осадков - Количество выпавших осадков за период времени, мм. При наведении курсора мыши на число - период времени, за который выпало указанное количество осадков.
R24 - Количество осадков - Количество выпавших осадков за 24 часа, мм.
S - Снежный покров - Высота снежного покрова, см. При наведении курсора мыши на число - состояние снежного покрова и степень покрытия местности в баллах.